Falfurrias, TX

8:36 PM CST on November 19, 2019 (GMT -0600)
Falfurrias

Weather History for KBKS - August, 2019

Change the Weather History Date:

Wednesday, August 14, 2019

  Actual Average (WUND) Record (WUND)
Temperature  
Mean Temperature 90 °F -  
Max Temperature 104 °F - - (-1)
Min Temperature 77 °F - - (-1)
Cooling Degree Days 25    
Growing Degree Days 40 (Base 50)    
Moisture  
Dew Point 74 °F    
Average Humidity 64    
Maximum Humidity 90    
Minimum Humidity 28    
Precipitation  
Precipitation 0.00 in - - ()
Sea Level Pressure  
Sea Level Pressure 29.92 in    
Wind  
Wind Speed 6 mph ()    
Max Wind Speed 17 mph    
Max Gust Speed 24 mph    
Visibility 9.8 miles    
Events      
Averages and records for this station are not official NWS values.
T = Trace of Precipitation, MM = Missing Value Source: Averaged Metar Reports

Daily Weather History Graph

Daily Weather History Graph

Search for Another Location

Airport or City:

Astronomy

Aug. 14, 2019 Rise Set
Actual Time 7:03 AM CDT 8:10 PM CDT
Civil Twilight 6:38 AM CDT 8:35 PM CDT
Nautical Twilight 6:09 AM CDT 9:04 PM CDT
Astronomical Twilight 5:39 AM CDT 9:33 PM CDT
Moon 7:59 PM CDT (8/14) 6:10 AM CDT (8/14)
Length of Visible Light 13h 56m
Length of Day
13h 07m
Waxing Gibbous, 99% of the Moon is Illuminated
Aug 14
Waxing Gibbous
Aug 15
Full
Aug 23
Last Quarter
Aug 30
New
Sep 5
First Quarter

Hourly Weather History & Observations

Time (CDT) Temp. Heat Index Dew Point Humidity Pressure Visibility Wind Dir Wind Speed Gust Speed Precip Events Conditions
12:15 AM 84.7 °F 93.2 °F 75.2 °F 73% 29.93 in 10.0 mi SE 8.1 mph - N/A   Clear
12:35 AM 84.4 °F 92.7 °F 75.4 °F 74% 29.92 in 10.0 mi SE 6.9 mph - N/A   Clear
12:55 AM 83.8 °F 92.1 °F 75.4 °F 76% 29.92 in 10.0 mi SSE 8.1 mph - N/A   Clear
1:15 AM 83.5 °F 91.2 °F 75.4 °F 76% 29.92 in 10.0 mi SSE 5.8 mph - N/A   Clear
1:35 AM 82.8 °F 90.1 °F 75.4 °F 78% 29.92 in 10.0 mi SSE 4.6 mph - N/A   Clear
1:55 AM 82.0 °F 88.9 °F 75.2 °F 80% 29.92 in 10.0 mi SE 3.5 mph - N/A   Clear
2:15 AM 81.7 °F 88.3 °F 75.2 °F 81% 29.92 in 10.0 mi SSE 3.5 mph - N/A   Clear
2:35 AM 81.1 °F 87.2 °F 75.2 °F 82% 29.91 in 10.0 mi SSE 4.6 mph - N/A   Clear
2:55 AM 80.8 °F 86.7 °F 75.4 °F 84% 29.91 in 10.0 mi South 5.8 mph - N/A   Clear
3:15 AM 80.8 °F 86.7 °F 75.6 °F 84% 29.91 in 10.0 mi SSE 5.8 mph - N/A   Clear
3:35 AM 80.6 °F 86.4 °F 75.6 °F 85% 29.91 in 10.0 mi SSE 4.6 mph - N/A   Clear
3:55 AM 80.6 °F 86.2 °F 75.4 °F 84% 29.91 in 10.0 mi Calm Calm - N/A   Clear
4:15 AM 80.2 °F 85.5 °F 75.4 °F 85% 29.91 in 10.0 mi SE 4.6 mph - N/A   Clear
4:35 AM 80.6 °F 86.4 °F 75.7 °F 85% 29.91 in 10.0 mi ESE 4.6 mph - N/A   Clear
4:55 AM 79.7 °F - 75.4 °F 87% 29.91 in 10.0 mi ESE 4.6 mph - N/A   Clear
5:15 AM 79.0 °F - 75.2 °F 88% 29.91 in 10.0 mi ESE 3.5 mph - N/A   Clear
5:35 AM 78.8 °F - 75.2 °F 89% 29.91 in 10.0 mi ESE 3.5 mph - N/A   Clear
5:55 AM 78.4 °F - 75.0 °F 89% 29.91 in 10.0 mi ESE 3.5 mph - N/A   Clear
6:15 AM 78.3 °F - 75.0 °F 90% 29.91 in 10.0 mi ESE 4.6 mph - N/A   Clear
6:35 AM 78.1 °F - 74.8 °F 90% 29.91 in 10.0 mi ESE 3.5 mph - N/A   Clear
6:55 AM 77.9 °F - 74.8 °F 90% 29.92 in 7.0 mi East 3.5 mph - N/A   Clear
7:15 AM 77.9 °F - 74.7 °F 90% 29.92 in 7.0 mi East 3.5 mph - N/A   Clear
7:35 AM 77.9 °F - 74.8 °F 90% 29.93 in 5.0 mi ENE 3.5 mph - N/A   Clear
7:55 AM 78.8 °F - 75.6 °F 90% 29.93 in 7.0 mi East 3.5 mph - N/A   Clear
8:15 AM 80.2 °F 85.8 °F 76.1 °F 87% 29.93 in 10.0 mi Calm Calm - N/A   Clear
8:35 AM 82.6 °F 90.8 °F 76.5 °F 82% 29.94 in 10.0 mi East 4.6 mph - N/A   Clear
8:55 AM 84.7 °F 95.2 °F 77.2 °F 78% 29.95 in 10.0 mi East 4.6 mph - N/A   Clear
9:15 AM 87.3 °F 98.8 °F 77.0 °F 71% 29.95 in 10.0 mi SSE 9.2 mph - N/A   Clear
9:35 AM 88.7 °F 99.8 °F 76.1 °F 66% 29.95 in 10.0 mi SSE 11.5 mph - N/A   Scattered Clouds
9:55 AM 90.0 °F 100.7 °F 75.4 °F 62% 29.95 in 10.0 mi SSE 12.7 mph 16.1 mph N/A   Scattered Clouds
10:15 AM 91.2 °F 100.8 °F 74.3 °F 57% 29.95 in 10.0 mi SSE 12.7 mph - N/A   Clear
10:35 AM 92.3 °F 102.2 °F 73.9 °F 55% 29.96 in 10.0 mi SE 9.2 mph 16.1 mph N/A   Scattered Clouds
10:55 AM 94.1 °F 104.5 °F 73.9 °F 52% 29.96 in 10.0 mi SSE 10.4 mph - N/A   Mostly Cloudy
11:15 AM 94.3 °F 102.9 °F 72.7 °F 49% 29.96 in 10.0 mi SSE 9.2 mph - N/A   Scattered Clouds
11:35 AM 94.1 °F 103.1 °F 73.0 °F 50% 29.96 in 10.0 mi SSE 8.1 mph - N/A   Clear
11:55 AM 96.6 °F 105.4 °F 71.8 °F 45% 29.96 in 10.0 mi SSE 9.2 mph - N/A   Scattered Clouds
12:15 PM 97.3 °F 104.9 °F 70.7 °F 42% 29.95 in 10.0 mi SE 11.5 mph 18.4 mph N/A   Scattered Clouds
12:35 PM 97.2 °F 105.2 °F 71.1 °F 43% 29.95 in 10.0 mi ESE 5.8 mph - N/A   Scattered Clouds
12:55 PM 97.3 °F 104.2 °F 70.2 °F 41% 29.94 in 10.0 mi East 9.2 mph - N/A   Clear
1:15 PM 99.7 °F 105.6 °F 68.5 °F 36% 29.94 in 10.0 mi ESE 8.1 mph - N/A   Clear
1:35 PM 101.7 °F 108.1 °F 68.7 °F 34% 29.93 in 10.0 mi SE 8.1 mph - N/A   Clear
1:55 PM 100.6 °F 106.0 °F 67.8 °F 34% 29.93 in 10.0 mi SSE 9.2 mph - N/A   Scattered Clouds
2:15 PM 102.2 °F 107.7 °F 67.3 °F 32% 29.92 in 10.0 mi ESE 5.8 mph - N/A   Scattered Clouds
2:35 PM 102.6 °F 106.2 °F 65.1 °F 29% 29.91 in 10.0 mi SSE 4.6 mph - N/A   Scattered Clouds
2:55 PM 102.6 °F 106.9 °F 65.5 °F 30% 29.90 in 10.0 mi Calm Calm - N/A   Scattered Clouds
3:15 PM 103.1 °F 107.9 °F 66.0 °F 30% 29.89 in 10.0 mi East 10.4 mph - N/A   Mostly Cloudy
3:35 PM 102.6 °F 106.9 °F 65.7 °F 30% 29.88 in 10.0 mi SE 6.9 mph 10.4 mph N/A   Scattered Clouds
3:55 PM 103.5 °F 107.1 °F 64.2 °F 28% 29.87 in 10.0 mi ENE 5.8 mph - N/A   Scattered Clouds
4:15 PM 100.0 °F 111.0 °F 73.0 °F 42% 29.87 in 10.0 mi East 17.3 mph 24.2 mph N/A   Scattered Clouds
4:35 PM 101.5 °F 112.7 °F 73.2 °F 40% 29.86 in 10.0 mi East 16.1 mph 21.9 mph N/A   Scattered Clouds
4:55 PM 100.8 °F 111.8 °F 73.2 °F 41% 29.86 in 10.0 mi East 16.1 mph 23.0 mph N/A   Clear
5:15 PM 101.1 °F 112.7 °F 73.6 °F 41% 29.85 in 10.0 mi ESE 11.5 mph 20.7 mph N/A   Clear
5:35 PM 99.3 °F 111.0 °F 73.8 °F 44% 29.85 in 10.0 mi ESE 15.0 mph 21.9 mph N/A   Scattered Clouds
5:55 PM 98.4 °F 109.6 °F 73.9 °F 45% 29.86 in 10.0 mi ESE 13.8 mph 19.6 mph N/A   Scattered Clouds
6:15 PM 97.7 °F 109.5 °F 74.3 °F 47% 29.85 in 10.0 mi ESE 15.0 mph - N/A   Clear
6:35 PM 96.6 °F 108.4 °F 74.5 °F 49% 29.86 in 10.0 mi East 12.7 mph 19.6 mph N/A   Clear
6:55 PM 95.7 °F 106.9 °F 74.7 °F 50% 29.86 in 10.0 mi ESE 11.5 mph - N/A   Clear
7:15 PM 94.5 °F 106.0 °F 74.8 °F 53% 29.88 in 10.0 mi ESE 10.4 mph 17.3 mph N/A   Clear
7:35 PM 93.4 °F 104.8 °F 75.2 °F 55% 29.88 in 10.0 mi ESE 13.8 mph 17.3 mph N/A   Clear
7:55 PM 92.1 °F 103.6 °F 75.2 °F 58% 29.89 in 10.0 mi ESE 12.7 mph - N/A   Clear
8:15 PM 90.9 °F 101.8 °F 75.2 °F 60% 29.89 in 10.0 mi ESE 8.1 mph - N/A   Clear
8:35 PM 90.1 °F 101.2 °F 75.6 °F 62% 29.90 in 10.0 mi ESE 10.4 mph 16.1 mph N/A   Clear
8:55 PM 89.4 °F 100.5 °F 75.7 °F 64% 29.90 in 10.0 mi ESE 9.2 mph - N/A   Clear
9:15 PM 88.7 °F 99.3 °F 75.7 °F 65% 29.91 in 10.0 mi SE 8.1 mph - N/A   Clear
9:35 PM 88.2 °F 99.0 °F 76.1 °F 67% 29.92 in 10.0 mi ESE 5.8 mph - N/A   Clear
9:55 PM 87.6 °F 98.2 °F 76.1 °F 68% 29.93 in 10.0 mi ESE 5.8 mph - N/A   Clear
10:15 PM 86.9 °F 97.8 °F 76.3 °F 71% 29.94 in 10.0 mi ESE 6.9 mph - N/A   Clear
10:35 PM 86.2 °F 96.9 °F 76.5 °F 73% 29.95 in 10.0 mi ESE 3.5 mph - N/A   Clear
10:55 PM 85.6 °F 95.9 °F 76.6 °F 74% 29.96 in 10.0 mi ESE 4.6 mph - N/A   Clear
11:15 PM 85.1 °F 95.4 °F 76.6 °F 76% 29.97 in 10.0 mi ESE 3.5 mph - N/A   Clear
11:35 PM 84.9 °F 94.9 °F 76.6 °F 76% 29.96 in 10.0 mi SE 5.8 mph - N/A   Clear
11:55 PM 84.6 °F 94.3 °F 76.6 °F 77% 29.96 in 10.0 mi ESE 5.8 mph - N/A   Clear